Simultaneous Nadir Overpasses (SNOs) Predictions

Prediction of SNOs near equator between AQUA and NPP Satellite Orbit:

Table of predicted SNOs near equator for the next 14.0 days since TLE Epoch: 4/13/2017
Index Date (AQUA) Time (AQUA) AQUA Lat,Lon Date (NPP) Time (NPP) NPP Lat,Lon Distance(km) Time Diff (sec)
1 04/14/2017 08:41:59 4.08, 72.83 04/14/2017 08:32:34 4.03, 72.48 38.54 565
2 04/14/2017 09:30:07 0.42,-118.56 04/14/2017 09:21:57 0.54,-119.17 68.35 490
3 04/14/2017 10:18:22 -4.99, 50.03 04/14/2017 10:11:27 -5.19, 49.17 97.84 415
4 04/17/2017 00:16:06 -29.96, 15.14 04/17/2017 00:06:06 -30.17, 14.62 55.12 600
5 04/17/2017 00:58:01 2.52,-170.97 04/17/2017 00:49:02 2.45,-171.40 48.47 539
6 04/17/2017 01:46:09 1.98, -2.35 04/17/2017 01:38:25 2.12, -3.04 78.23 464
7 04/19/2017 16:25:50 -5.59, 136.64 04/19/2017 16:16:01 -5.52, 136.39 28.56 589
8 04/19/2017 17:14:04 0.97, -54.76 04/19/2017 17:05:31 0.87, -55.27 58.47 513
9 04/19/2017 18:02:12 3.54, 113.86 04/19/2017 17:54:54 3.71, 113.08 88.08 438
10 04/22/2017 08:41:51 -3.93,-107.13 04/22/2017 08:32:29 -3.88,-107.47 38.52 562
11 04/22/2017 09:30:06 -0.63, 61.46 04/22/2017 09:21:59 -0.77, 60.86 68.45 487
12 04/22/2017 10:18:14 5.14,-129.92 04/22/2017 10:11:22 5.35,-130.78 97.81 412
13 04/25/2017 00:15:38 28.15,-164.41 04/25/2017 00:05:38 28.18,-164.86 44.25 600
14 04/25/2017 00:57:54 -2.39, 9.08 04/25/2017 00:48:58 -2.30, 8.65 48.54 536
15 04/25/2017 01:46:08 -2.22, 177.68 04/25/2017 01:38:28 -2.35, 176.98 78.48 460
16 04/27/2017 16:25:47 5.32, -43.32 04/27/2017 16:16:02 5.25, -43.57 28.85 585
17 04/27/2017 17:13:55 -0.80, 125.29 04/27/2017 17:05:25 -0.66, 124.78 58.70 510
18 04/27/2017 18:02:09 -3.81, -66.10 04/27/2017 17:54:55 -3.98, -66.88 88.34 434




NCC Satellite Simultaneous Nadir Overpasses (SNOs) Prediction Service
